Wind_Speed
5 9 10 10 10 10 11 12 12 11 10 9 9 12 18 28 33 37 36 34 31 32 31 30 29 25 20 14 18 17 9 8 2 9 9 9 19 22 28 25 30 36 40 40 43
13 13 12 12 13 14 15 15 15 15 16 15 14 12 13 17 27 33 38 38 36 34 34 33 31 28 22 19 15 14 12 15 5 4 8 6 16 18 24 25 29 32 38 40 41
13 13 11 11 11 11 12 14 15 16 17 17 16 16 15 16 19 23 34 38 40 39 37 36 33 33 25 24 22 18 15 12 5 4 4 5 12 17 18 23 28 32 34 39 41
9 6 8 10 12 14 15 16 17 19 18 19 20 20 21 21 21 19 25 34 39 42 42 38 36 36 32 29 25 21 19 13 12 14 15 13 11 11 13 19 23 28 33 35 41
11 12 14 16 16 17 19 21 23 25 25 26 27 28 26 25 24 24 24 27 34 42 44 43 39 39 38 33 30 27 19 20 19 13 16 14 6 6 12 16 22 26 30 33 36
16 16 18 19 20 22 24 27 28 30 29 31 33 32 33 33 31 28 27 27 29 35 45 45 44 42 40 39 36 32 26 24 23 17 19 13 8 4 11 14 17 22 24 30 33
19 20 21 24 28 30 32 33 33 35 35 35 35 37 37 34 35 35 34 30 31 31 35 42 47 46 45 44 41 38 36 30 25 18 20 16 10 6 6 16 20 17 21 26 30
21 23 26 30 32 34 35 37 37 36 36 38 39 40 41 40 37 39 39 36 33 34 33 34 42 49 49 49 47 43 40 36 29 20 21 25 21 19 11 12 14 17 16 22 26
28 30 32 35 37 38 41 42 41 41 44 44 43 42 39 41 42 42 42 41 39 35 35 37 38 45 54 54 51 48 47 44 38 34 23 21 19 19 16 16 12 14 12 17 21
34 36 38 40 41 43 44 44 44 45 48 46 44 42 42 43 45 44 44 43 42 41 40 40 41 41 52 59 54 52 50 43 43 38 23 30 18 21 20 18 19 8 11 13 15
38 38 39 43 44 46 45 44 46 48 47 43 41 40 39 38 38 39 41 43 44 44 44 44 46 48 50 60 59 56 53 43 36 27 24 29 24 27 28 24 21 10 4 8 8
43 42 42 44 45 46 47 47 46 43 39 35 34 35 34 35 36 37 39 40 42 43 45 48 52 53 51 58 63 59 56 46 39 34 34 27 21 22 24 26 28 22 8 3 5
44 45 44 44 46 47 46 44 41 37 33 31 30 31 32 35 39 39 42 42 42 42 46 51 57 55 55 53 64 63 59 50 45 41 42 36 29 30 23 28 26 23 19 8 7
45 44 44 45 45 44 42 39 35 28 25 27 30 33 36 39 44 45 46 50 50 49 51 52 58 59 60 57 57 66 65 59 54 48 44 38 34 31 31 30 24 21 19 9 8
42 40 40 42 39 37 35 31 23 21 24 27 32 37 41 43 46 47 49 51 51 57 58 59 59 59 60 61 54 63 69 65 63 59 51 47 50 39 38 36 29 23 21 16 10
41 40 39 33 29 29 26 19 20 23 27 31 34 39 42 43 42 43 43 46 47 56 67 70 65 62 65 65 63 61 71 74 71 69 58 50 44 50 43 40 32 22 23 21 17
41 35 29 24 19 14 13 19 24 27 30 34 37 40 42 41 35 33 30 31 38 49 65 75 74 74 71 70 69 64 66 78 79 75 61 54 52 45 46 39 32 29 28 26 19
32 27 21 17 13 14 19 23 28 32 35 38 41 44 43 43 37 37 34 24 26 35 48 67 81 82 76 74 76 75 70 76 85 79 72 59 56 54 50 46 39 37 35 27 23
27 20 17 17 17 19 23 28 31 34 40 42 44 45 42 43 43 42 41 26 19 25 35 48 70 84 80 79 79 82 76 73 88 82 76 67 63 55 50 46 47 42 39 32 30
21 20 17 18 21 24 28 30 31 40 46 44 44 44 41 43 40 43 47 28 21 17 26 36 49 69 84 90 83 80 80 78 74 90 85 76 72 61 59 53 53 48 41 37 34
19 18 18 19 24 28 32 32 36 45 49 43 40 40 39 41 40 41 47 32 24 16 19 28 39 55 79 92 89 84 83 79 74 75 85 84 77 69 64 62 58 51 46 41 40
16 19 21 23 27 29 35 36 40 47 45 38 40 38 35 35 39 41 51 32 24 17 16 23 34 46 67 88 93 89 84 80 78 74 80 91 89 78 66 59 61 57 53 49 47
21 25 27 29 33 35 42 43 45 49 41 37 38 35 33 33 39 41 50 31 22 18 18 18 30 40 54 75 94 92 85 81 79 78 77 86 91 87 82 70 64 61 57 55 54
30 33 36 38 42 43 45 46 50 44 39 36 38 33 31 33 36 43 47 31 19 21 18 19 24 32 43 59 85 94 88 84 82 79 83 78 85 90 85 76 69 66 65 61 57
38 40 42 45 44 42 45 46 49 41 38 35 30 30 27 35 37 40 48 30 18 21 20 20 22 26 37 50 72 93 94 89 84 81 84 79 72 79 82 85 80 76 67 64 64
42 40 41 41 44 44 45 47 44 42 38 33 26 23 29 35 40 46 46 26 23 22 24 20 21 25 31 44 54 80 90 95 89 84 84 83 74 72 80 84 85 82 80 74 62
35 37 39 40 42 36 35 37 43 41 37 32 26 23 28 35 40 48 40 23 25 25 24 23 22 27 28 33 47 65 83 90 94 87 86 83 81 73 78 83 87 79 78 79 68
Wind_Direction
338 329 316 304 302 301 307 304 297 287 279 278 274 253 246 245 243 241 240 236 229 228 225 222 222 224 226 231 226 219 217 241 287 333 1 32 31 30 34 35 32 33 33 38 34
313 308 303 296 296 300 301 299 298 293 291 289 285 275 260 248 246 239 239 236 234 230 225 221 221 221 222 221 218 213 208 229 208 282 338 2 25 14 31 33 31 33 31 36 35
305 309 311 305 296 295 294 296 292 291 291 291 290 281 273 267 258 243 237 235 231 232 228 221 218 224 215 216 209 219 225 234 232 165 268 322 333 357 9 31 25 30 29 32 35
297 290 288 290 287 288 293 293 294 292 287 287 290 288 285 277 269 253 242 236 230 228 228 222 215 219 215 216 207 207 214 211 197 205 221 249 320 339 3 24 19 24 31 28 31
265 267 288 287 290 295 296 296 295 296 287 283 283 282 280 279 275 263 254 241 233 227 225 222 218 216 218 212 208 201 197 217 208 216 216 244 311 330 353 17 4 14 33 33 29
278 275 289 291 296 294 295 297 297 297 293 289 285 281 282 279 274 267 264 251 240 233 227 223 220 218 213 209 211 203 196 213 213 216 241 251 258 326 329 344 7 8 25 32 31
276 278 288 294 296 299 300 300 297 297 295 290 285 279 275 273 272 274 266 261 248 241 233 227 224 218 215 209 209 208 210 208 205 222 242 249 241 256 322 317 331 4 20 30 31
287 288 291 295 298 297 297 295 292 292 295 296 292 283 275 273 274 267 263 260 256 245 236 229 224 219 216 212 207 203 203 208 205 218 237 246 260 267 289 291 322 351 8 27 30
284 289 292 296 295 295 294 293 290 291 293 293 290 283 277 270 268 266 260 254 255 247 237 233 227 221 217 212 209 201 207 213 213 223 237 249 255 266 277 275 303 335 356 15 30
285 286 289 291 291 291 294 295 291 289 293 291 287 283 278 272 269 265 260 254 252 247 238 230 230 228 218 213 209 204 204 214 222 220 223 238 240 251 256 267 285 307 338 6 29
288 286 288 289 290 292 294 295 293 293 292 290 286 282 280 273 267 267 263 257 248 245 237 232 228 228 222 214 209 206 200 210 210 207 197 221 250 254 249 256 264 264 309 356 17
291 288 289 290 293 296 298 295 295 295 293 289 285 284 282 281 276 271 266 259 253 243 236 233 230 227 225 215 210 204 201 201 200 199 203 210 214 241 245 249 252 255 242 303 337
293 289 289 292 295 298 298 297 296 294 292 286 285 285 285 283 280 278 274 268 259 246 236 234 231 228 225 217 211 206 201 193 183 193 200 211 226 243 245 250 236 243 238 237 279
296 294 294 296 297 298 298 297 297 289 282 283 287 288 287 284 281 280 274 269 261 252 242 236 231 227 224 218 209 207 199 191 180 197 203 199 195 195 222 224 218 228 226 209 242
302 301 299 299 300 298 296 299 291 285 287 292 296 299 298 298 297 291 283 277 262 244 240 233 227 226 224 221 212 210 200 193 185 192 192 197 198 196 204 222 223 211 214 222 206
306 306 305 305 302 296 299 296 290 294 300 304 307 308 308 309 303 293 287 273 258 244 232 230 227 220 222 217 215 213 203 194 190 191 194 193 197 211 210 219 217 211 207 213 200
306 307 308 308 305 304 300 295 300 306 308 315 321 319 320 318 314 315 303 280 256 238 231 224 222 219 217 215 215 214 207 197 191 192 194 191 201 197 198 211 214 217 212 205 202
305 305 299 295 300 296 303 307 311 318 318 321 323 325 328 325 325 332 328 300 263 243 234 225 218 216 212 212 214 213 210 202 195 195 195 196 198 205 214 211 222 216 207 207 208
303 285 287 286 290 301 309 312 318 323 320 320 318 323 329 331 331 335 339 322 285 253 235 227 219 212 211 213 213 213 211 207 201 196 197 201 206 203 203 205 218 214 207 209 214
293 274 286 290 296 305 308 310 315 324 325 317 317 320 327 330 332 335 342 326 308 279 239 226 219 210 208 210 212 213 211 209 205 206 206 208 212 207 207 209 215 211 218 216 217
279 274 284 293 302 307 306 307 312 317 322 315 314 318 323 330 335 337 340 326 306 292 253 226 217 210 205 207 210 212 212 209 209 208 207 205 204 202 204 213 213 213 216 214 216
284 286 294 299 308 308 313 315 317 315 319 314 313 315 319 329 337 337 340 331 302 289 253 226 212 205 205 204 207 210 212 209 211 210 209 208 209 201 200 213 216 217 212 213 215
296 294 298 297 305 311 308 314 313 315 316 314 310 313 322 325 329 331 336 324 293 286 259 216 208 201 205 204 205 209 212 210 211 213 211 209 212 209 213 214 217 217 215 215 215
299 297 294 292 298 302 301 307 308 312 313 312 308 310 323 323 325 326 332 316 287 277 258 216 206 201 203 204 205 207 209 212 211 214 215 208 215 217 218 217 213 215 217 217 213
289 286 288 293 294 296 296 300 305 310 312 312 309 312 326 324 323 326 329 305 273 264 255 238 205 212 202 208 204 206 208 210 212 213 217 208 211 219 218 218 215 215 214 212 214
303 297 295 298 298 291 290 299 301 307 313 307 305 312 323 324 319 323 324 299 262 249 248 232 232 207 213 208 204 207 209 211 211 212 217 215 207 214 218 218 217 220 222 218 219
300 301 298 290 293 292 292 295 300 305 304 301 303 313 314 321 321 323 316 294 253 236 240 234 226 228 209 213 211 209 207 213 214 212 216 219 214 211 217 217 218 217 221 223 222
Height
10934 10934 10934 10933 10932 10932 10931 10931 10930 10930 10931 10931 10932 10932 10932 10933 10935 10940 10943 10948 10951 10955 10960 10965 10968 10972 10975 10977 10977 10979 10979 10978 10979 10977 10978 10977 10976 10975 10971 10967 10964 10960 10953 10945 10939
10931 10931 10931 10930 10930 10929 10929 10928 10927 10927 10927 10927 10928 10929 10929 10929 10929 10933 10936 10940 10945 10949 10953 10959 10964 10968 10971 10973 10976 10977 10978 10977 10978 10977 10978 10977 10977 10977 10974 10971 10967 10963 10957 10950 10943
10929 10928 10928 10927 10927 10926 10926 10925 10925 10924 10924 10924 10924 10924 10925 10925 10925 10927 10929 10932 10937 10942 10947 10953 10959 10963 10967 10969 10973 10975 10977 10976 10977 10976 10978 10978 10977 10978 10977 10973 10971 10966 10960 10954 10947
10926 10926 10926 10925 10925 10924 10924 10923 10922 10922 10921 10921 10921 10920 10920 10920 10920 10922 10923 10924 10929 10934 10940 10947 10951 10956 10961 10965 10969 10973 10974 10975 10974 10974 10974 10978 10978 10978 10979 10975 10974 10971 10964 10959 10951
10924 10923 10923 10922 10922 10921 10920 10919 10918 10918 10917 10917 10916 10915 10915 10915 10915 10916 10917 10919 10921 10925 10930 10939 10945 10948 10954 10961 10965 10968 10971 10973 10974 10974 10975 10977 10979 10978 10980 10978 10977 10975 10970 10963 10957
10920 10920 10919 10918 10917 10916 10915 10914 10913 10911 10910 10909 10908 10908 10907 10907 10909 10910 10911 10914 10917 10919 10923 10929 10936 10941 10947 10956 10959 10965 10967 10971 10971 10973 10973 10977 10978 10978 10979 10979 10980 10977 10975 10969 10963
10916 10915 10913 10912 10911 10910 10908 10906 10905 10903 10902 10901 10901 10899 10898 10900 10900 10900 10902 10906 10910 10913 10916 10920 10925 10933 10940 10946 10953 10958 10963 10967 10969 10971 10972 10975 10977 10978 10979 10979 10980 10980 10978 10973 10967
10911 10909 10908 10906 10905 10903 10900 10898 10896 10895 10894 10893 10891 10889 10889 10890 10891 10890 10892 10896 10900 10905 10909 10911 10914 10921 10929 10937 10943 10951 10958 10962 10965 10967 10971 10972 10975 10976 10979 10980 10981 10981 10980 10978 10972
10906 10904 10902 10899 10897 10895 10892 10890 10887 10886 10884 10882 10880 10878 10878 10878 10878 10879 10881 10885 10889 10895 10900 10903 10906 10911 10916 10926 10933 10943 10951 10956 10960 10963 10967 10969 10971 10974 10976 10980 10982 10983 10982 10981 10978
10899 10897 10894 10891 10888 10885 10883 10880 10877 10875 10872 10870 10868 10866 10864 10865 10864 10866 10867 10872 10877 10881 10887 10892 10897 10900 10903 10914 10926 10936 10943 10949 10954 10960 10965 10967 10969 10970 10972 10976 10980 10984 10983 10982 10982
10891 10888 10885 10882 10878 10875 10873 10870 10866 10863 10860 10857 10855 10854 10851 10851 10852 10852 10853 10857 10862 10866 10874 10880 10885 10887 10894 10905 10915 10925 10934 10942 10948 10954 10960 10962 10965 10966 10969 10972 10978 10983 10984 10982 10983
10882 10879 10876 10872 10868 10865 10861 10857 10854 10851 10848 10845 10843 10842 10841 10841 10839 10840 10841 10843 10846 10854 10860 10867 10869 10873 10883 10893 10903 10916 10924 10932 10941 10947 10955 10957 10960 10964 10966 10969 10974 10980 10983 10984 10983
10872 10868 10865 10861 10857 10853 10849 10845 10842 10840 10838 10835 10835 10834 10833 10831 10828 10828 10828 10830 10833 10838 10845 10849 10853 10865 10873 10883 10893 10905 10914 10925 10932 10939 10946 10953 10958 10959 10962 10965 10969 10976 10980 10982 10983
10861 10858 10854 10851 10846 10841 10837 10834 10832 10830 10830 10828 10826 10825 10823 10820 10817 10816 10813 10812 10817 10822 10826 10834 10838 10850 10859 10870 10883 10891 10903 10914 10921 10932 10937 10944 10951 10954 10959 10960 10965 10971 10977 10980 10983
10851 10848 10844 10839 10835 10830 10827 10826 10824 10824 10824 10823 10819 10814 10810 10806 10800 10796 10792 10789 10791 10798 10805 10813 10822 10836 10848 10859 10873 10878 10893 10902 10909 10921 10929 10935 10941 10945 10952 10955 10963 10969 10973 10977 10980
10841 10838 10834 10829 10826 10822 10820 10820 10820 10819 10816 10813 10809 10803 10797 10791 10783 10775 10768 10765 10767 10770 10778 10788 10805 10821 10827 10843 10855 10866 10879 10886 10897 10907 10920 10926 10930 10936 10945 10951 10956 10964 10968 10973 10978
10832 10828 10825 10823 10819 10817 10816 10815 10813 10811 10807 10801 10797 10790 10783 10778 10770 10761 10752 10746 10743 10744 10749 10763 10783 10795 10810 10826 10839 10854 10862 10875 10887 10899 10908 10917 10922 10927 10937 10944 10950 10960 10964 10968 10972
10824 10821 10819 10818 10815 10814 10812 10809 10806 10801 10797 10791 10785 10778 10772 10764 10758 10749 10739 10732 10727 10726 10728 10740 10754 10773 10796 10809 10818 10830 10847 10861 10873 10885 10897 10908 10914 10918 10929 10938 10944 10953 10959 10963 10967
10817 10815 10814 10813 10810 10808 10806 10801 10798 10794 10787 10782 10776 10769 10763 10754 10745 10739 10730 10722 10716 10713 10715 10721 10733 10758 10785 10795 10804 10813 10833 10848 10863 10872 10886 10896 10904 10912 10921 10928 10936 10944 10951 10956 10963
10810 10809 10809 10807 10805 10802 10799 10795 10789 10784 10778 10771 10766 10761 10756 10749 10740 10731 10723 10716 10710 10706 10706 10709 10719 10739 10760 10771 10789 10808 10819 10834 10849 10860 10872 10885 10895 10904 10911 10920 10929 10935 10941 10948 10955
10805 10804 10803 10801 10799 10795 10791 10788 10784 10776 10769 10763 10758 10752 10747 10741 10733 10725 10718 10710 10705 10701 10700 10703 10709 10723 10737 10759 10775 10790 10803 10824 10838 10851 10860 10871 10880 10891 10901 10911 10919 10927 10933 10940 10947
10800 10799 10797 10795 10792 10788 10782 10779 10775 10768 10762 10755 10749 10745 10741 10735 10727 10719 10712 10706 10701 10699 10697 10697 10702 10712 10723 10737 10762 10774 10791 10813 10824 10836 10843 10855 10867 10879 10890 10901 10910 10918 10924 10930 10938
10795 10793 10790 10787 10784 10780 10773 10769 10764 10759 10754 10747 10740 10737 10733 10729 10722 10714 10707 10702 10699 10696 10694 10693 10697 10704 10714 10730 10747 10763 10783 10800 10812 10822 10831 10847 10858 10869 10879 10890 10898 10906 10915 10922 10928
10788 10785 10782 10779 10775 10772 10763 10759 10755 10751 10745 10740 10731 10728 10724 10721 10717 10709 10702 10696 10695 10693 10691 10691 10694 10699 10709 10720 10734 10753 10770 10785 10799 10808 10816 10833 10845 10855 10866 10875 10885 10893 10902 10912 10918
10780 10777 10773 10769 10766 10762 10754 10749 10743 10742 10738 10733 10727 10721 10717 10713 10708 10704 10696 10689 10689 10688 10687 10689 10691 10697 10702 10710 10723 10739 10753 10766 10783 10794 10804 10821 10834 10841 10849 10858 10871 10878 10889 10900 10908
10768 10764 10760 10757 10753 10750 10745 10740 10733 10733 10729 10725 10721 10716 10711 10705 10699 10693 10688 10682 10681 10682 10682 10686 10690 10692 10698 10704 10714 10728 10739 10751 10764 10782 10792 10804 10819 10827 10833 10845 10857 10866 10875 10886 10895
10758 10755 10750 10746 10742 10739 10735 10731 10724 10723 10721 10717 10713 10710 10708 10701 10694 10685 10676 10674 10674 10676 10679 10681 10684 10688 10693 10698 10706 10713 10724 10740 10753 10767 10781 10795 10806 10813 10819 10829 10841 10854 10861 10871 10882